H-2A DEB, 43069

Orbit data source: Space-Track

H-2A DEB, 43069 is space debris in SSO originally from a launch on Sat, 23 Dec 2017 UTC launched from the Tanegashima Space Center (TNSTA). Debris objects in space refer to the collection of defunct objects orbiting the Earth. Examples of debris include non-operational satellites, rocket bodies, and fragments generated from explosions, collisions, or faulty payload assembly.

Loading next visibility...
Identifier
43069, 2017-082E
Orbit
SSO
Last TLE update
15 hours ago
Origin
Manufacturer
MELCO
Mission
Spacecraft
Bus & Motor
Unknown
Mass
Unknown
Launch date (UTC)
2017-12-23 (8 years ago)
Launch vehicle
Unknown
Launch site
Tanegashima Space Center (TNSTA)
Object type
Payload
Rocket body
Debris
Shape & HBR
Unknown
Radar Cross Section
Small (<0.1 m²)

Expand to show TLE details & history

TLE from 15 hours ago
0 H-2A DEB
1 43069U 17082E   25186.72231631  .00003723  00000-0  89516-3 0  9994
2 43069  98.2844 252.4998 0026406 121.9786 238.3982 14.53717914396331
Epoch: 2025-07-05T17:20Z
TLE epoch observation values (Epoch: 2025-07-05T17:20:08.129Z)
Latitude
-0.00002°
Longitude
68.50965°
Altitude
726.356 km
Speed
7.487 km/s
True Right ascension
16h 49m 59s
True Declination
0° 00' 00"
Sunlit
Object was in full shadow at epoch
Visualization orbit readout
Latitude
64.30282°
Longitude
51.61933°
Altitude
713.686 km
Speed
7.511 km/s
Apparent Right ascension
10h 54m 55s
Apparent Declination
25° 10' 51"
Sunlit
Object is in daylight
Visualization observer readout
Local Sidereal Time
20:28:00
Azimuth
325.643° NNW
Elevation
-16.455°
Doppler factor
1
Orbital elements
Apogee altitude
729.343 km
Perigee altitude
691.906 km
Semi-major axis
7,088.762 km
Eccentricity
0.00264
Inclination
98.2844°
RAAN
252.4998°
Arg. of periapsis
121.9786°
True anomaly
Unknown
Mean anomaly
238.3982°
Eccentric anomaly
Unknown
Mean motion
3.63653 °/min
Orbital period
99 mins
BSTAR
0.00089516
Loading maneuver chart data...
Loading SW <> Apogee altitude chart data...
Loading historical data...
Loading historical data...
Loading historical data...
Loading historical data...
Loading historical data...
Loading historical data...
Loading historical data...
Other satellites on launch #82 in the year 2017 (2017-12-23 UTC)

H-2A DEB Visibility forecast

Observer location: undefined°, undefined°

Span
Click to sort rows by Start time (UTC) header in descending order
Start Az.
Max El. time (UTC)
Max El. Az.
Max El.
End time (UTC)
End Az.
8 mins2025-07-06 17:02:09.675Z21.912° NNE2025-07-06 17:06:09.675Z97.263° ESE41.125°2025-07-06 17:10:09.675Z179.946° S
8 mins2025-07-07 04:09:09.675Z152.741° SSE2025-07-07 04:13:09.675Z49.077° ENE41.708°2025-07-07 04:17:09.675Z353.858° N
|